User: anonymous   Login
Location: Unspecified
(0.0000°N, 0.0000°E)
Time: 10:50:27
(UTC+00:00)
Language:

Amsat-Oscar-6 - Orbit

View from above orbital plane
View from above orbital plane
View from above satellite
View from above satellite

Ground track
Ground track

The orbit data is extracted from the following two-line orbital elements,

1  6236U 72082B   19294.93777578 -.00000019 +00000-0 +16774-3 0  9993
2  6236 101.8420 262.8132 0004458 106.9123 268.2940 12.53152671150541
Epoch (UTC): 21 October 2019 22:30:23
Eccentricity: 0.0004458
inclination: 101.8420°
perigee height: 1448 km
apogee height: 1455 km
right ascension of ascending node: 262.8132°
argument of perigee: 106.9123°
revolutions per day: 12.53152671
mean anomaly at epoch: 268.2940°
orbit number at epoch: 15054

The dashed part of the orbit path shows where the satellite is in the earth's shadow,  

DLR